• In Hungary
  • List of Countries
  • For 7 days
  • Water Temperature
  • Satellite Maps
  • Weather Map
  • News
  • Weather Widgets
  • user-avatar
    Login

    Hourly Weather Bhopal

    Today, 22 June, Friday

    Time Temperature Precipitation Wind Pressure Humidity
    00:00 +34°C° 0.4 mm 4 mps 709 mmHg 50%
    01:00 +33°C° 0.4 mm 4 mps 709 mmHg 55%
    02:00 +33°C° 0.4 mm 4 mps 709 mmHg 60%
    03:00 +32°C° 0 mm 4 mps 709 mmHg 59%
    04:00 +31°C° 0 mm 3 mps 709 mmHg 59%
    05:00 +30°C° 0 mm 5 mps 709 mmHg 65%
    06:00 +32°C° 0.3 mm 4 mps 710 mmHg 64%
    07:00 +32°C° 0.3 mm 4 mps 710 mmHg 63%
    08:00 +33°C° 0.3 mm 3 mps 710 mmHg 62%
    09:00 +34°C° 0 mm 3 mps 710 mmHg 57%
    10:00 +35°C° 0 mm 3 mps 710 mmHg 53%
    11:00 +36°C° 0 mm 3 mps 710 mmHg 48%
    12:00 +37°C° 0 mm 3 mps 710 mmHg 46%
    13:00 +38°C° 0 mm 4 mps 709 mmHg 44%
    14:00 +38°C° 0 mm 4 mps 709 mmHg 42%
    15:00 +38°C° 0 mm 4 mps 709 mmHg 42%
    16:00 +38°C° 0 mm 4 mps 708 mmHg 42%
    17:00 +38°C° 0 mm 3 mps 708 mmHg 42%
    18:00 +37°C° 0 mm 4 mps 708 mmHg 46%
    19:00 +36°C° 0 mm 4 mps 708 mmHg 50%
    20:00 +35°C° 0 mm 5 mps 708 mmHg 54%
    21:00 +35°C° 0 mm 5 mps 708 mmHg 56%
    22:00 +34°C° 0 mm 5 mps 709 mmHg 59%
    23:00 +33°C° 0 mm 5 mps 709 mmHg 61%

    Tomorrow, 23 June, Saturday

    Time Temperature Precipitation Wind Pressure Humidity
    00:00 +33°C° 0 mm 5 mps 709 mmHg 61%
    01:00 +33°C° 0 mm 5 mps 708 mmHg 62%
    02:00 +32°C° 0 mm 5 mps 708 mmHg 62%
    03:00 +32°C° 0 mm 4 mps 708 mmHg 62%
    04:00 +32°C° 0 mm 4 mps 708 mmHg 62%
    05:00 +31°C° 0 mm 3 mps 708 mmHg 61%
    06:00 +33°C° 0 mm 3 mps 709 mmHg 60%
    07:00 +33°C° 0 mm 3 mps 709 mmHg 58%
    08:00 +34°C° 0 mm 3 mps 710 mmHg 57%
    09:00 +35°C° 0 mm 4 mps 710 mmHg 53%
    10:00 +36°C° 0 mm 4 mps 710 mmHg 50%
    11:00 +37°C° 0 mm 4 mps 710 mmHg 46%
    12:00 +38°C° 0 mm 4 mps 709 mmHg 43%
    13:00 +40°C° 0 mm 4 mps 709 mmHg 39%
    14:00 +41°C° 0 mm 4 mps 709 mmHg 35%
    15:00 +41°C° 0 mm 4 mps 708 mmHg 36%
    16:00 +40°C° 0 mm 3 mps 708 mmHg 36%
    17:00 +40°C° 0 mm 3 mps 707 mmHg 36%
    18:00 +39°C° 0 mm 3 mps 707 mmHg 38%
    19:00 +38°C° 0 mm 4 mps 707 mmHg 40%
    20:00 +38°C° 0 mm 4 mps 707 mmHg 42%
    21:00 +37°C° 0.7 mm 4 mps 707 mmHg 46%
    22:00 +36°C° 0.7 mm 3 mps 708 mmHg 50%
    23:00 +35°C° 0.7 mm 3 mps 708 mmHg 54%

    Day after tomorrow, 24 June, Sunday

    Time Temperature Precipitation Wind Pressure Humidity
    00:00 +35°C° 0.2 mm 3 mps 708 mmHg 54%
    01:00 +34°C° 0.2 mm 3 mps 707 mmHg 54%
    02:00 +34°C° 0.2 mm 3 mps 707 mmHg 54%
    03:00 +34°C° 0 mm 3 mps 707 mmHg 54%
    04:00 +34°C° 0 mm 4 mps 707 mmHg 55%
    05:00 +34°C° 0 mm 5 mps 707 mmHg 56%
    06:00 +34°C° 0 mm 5 mps 708 mmHg 55%
    07:00 +35°C° 0 mm 5 mps 708 mmHg 53%
    08:00 +35°C° 0 mm 5 mps 709 mmHg 51%
    09:00 +35°C° 0 mm 5 mps 709 mmHg 53%
    10:00 +35°C° 0 mm 5 mps 709 mmHg 54%
    11:00 +35°C° 0 mm 5 mps 709 mmHg 55%
    12:00 +36°C° 0 mm 5 mps 709 mmHg 51%
    13:00 +39°C° 0 mm 5 mps 708 mmHg 47%
    14:00 +40°C° 0 mm 6 mps 708 mmHg 43%
    15:00 +39°C° 0.2 mm 6 mps 707 mmHg 45%
    16:00 +38°C° 0.2 mm 6 mps 707 mmHg 48%
    17:00 +38°C° 0.2 mm 6 mps 706 mmHg 50%
    18:00 +35°C° 4.5 mm 6 mps 707 mmHg 55%
    19:00 +34°C° 4.5 mm 6 mps 707 mmHg 61%
    20:00 +33°C° 4.5 mm 5 mps 708 mmHg 67%
    21:00 +32°C° 0.6 mm 7 mps 708 mmHg 67%
    22:00 +32°C° 0.6 mm 8 mps 708 mmHg 66%
    23:00 +32°C° 0.6 mm 9 mps 709 mmHg 66%

    25 June, Monday

    Time Temperature Precipitation Wind Pressure Humidity
    00:00 +30°C° 0.4 mm 7 mps 708 mmHg 66%
    01:00 +30°C° 0.4 mm 5 mps 708 mmHg 66%
    02:00 +30°C° 0.4 mm 2 mps 708 mmHg 66%
    03:00 +30°C° 0.3 mm 3 mps 708 mmHg 68%
    04:00 +30°C° 0.3 mm 4 mps 708 mmHg 70%
    05:00 +29°C° 0.3 mm 4 mps 708 mmHg 71%
    06:00 +30°C° 0 mm 5 mps 708 mmHg 70%
    07:00 +30°C° 0 mm 5 mps 709 mmHg 68%
    08:00 +32°C° 0 mm 5 mps 709 mmHg 67%
    09:00 +33°C° 0 mm 5 mps 709 mmHg 62%
    10:00 +35°C° 0 mm 5 mps 709 mmHg 58%
    11:00 +36°C° 0 mm 5 mps 709 mmHg 54%
    12:00 +37°C° 0 mm 5 mps 708 mmHg 51%
    13:00 +37°C° 0 mm 5 mps 708 mmHg 47%
    14:00 +39°C° 0 mm 5 mps 707 mmHg 44%
    15:00 +39°C° 0 mm 5 mps 707 mmHg 44%
    16:00 +39°C° 0 mm 5 mps 707 mmHg 45%
    17:00 +38°C° 0 mm 4 mps 706 mmHg 45%
    18:00 +37°C° 0 mm 4 mps 707 mmHg 47%
    19:00 +36°C° 0 mm 4 mps 707 mmHg 49%
    20:00 +36°C° 0 mm 4 mps 707 mmHg 51%
    21:00 +35°C° 1.2 mm 5 mps 707 mmHg 55%
    22:00 +34°C° 1.2 mm 5 mps 707 mmHg 59%
    23:00 +33°C° 1.2 mm 5 mps 708 mmHg 63%

    26 June, Tuesday

    Time Temperature Precipitation Wind Pressure Humidity
    00:00 +32°C° 7.1 mm 5 mps 707 mmHg 67%
    01:00 +30°C° 7.1 mm 4 mps 707 mmHg 72%
    02:00 +30°C° 7.1 mm 4 mps 707 mmHg 76%
    03:00 +29°C° 1.8 mm 4 mps 707 mmHg 77%
    04:00 +29°C° 1.8 mm 5 mps 707 mmHg 78%
    05:00 +29°C° 1.8 mm 5 mps 707 mmHg 79%
    06:00 +29°C° 0 mm 5 mps 708 mmHg 77%
    07:00 +29°C° 0 mm 5 mps 708 mmHg 76%
    08:00 +30°C° 0 mm 5 mps 709 mmHg 74%
    09:00 +30°C° 2.2 mm 5 mps 709 mmHg 73%
    10:00 +32°C° 2.2 mm 5 mps 709 mmHg 71%
    11:00 +32°C° 2.2 mm 5 mps 709 mmHg 70%
    12:00 +30°C° 5.2 mm 4 mps 709 mmHg 73%
    13:00 +30°C° 5.2 mm 4 mps 708 mmHg 75%
    14:00 +29°C° 5.2 mm 3 mps 708 mmHg 78%
    15:00 +29°C° 1.5 mm 4 mps 708 mmHg 78%
    16:00 +29°C° 1.5 mm 4 mps 707 mmHg 77%
    17:00 +29°C° 1.5 mm 4 mps 707 mmHg 77%
    18:00 +29°C° 0.1 mm 4 mps 707 mmHg 78%
    19:00 +29°C° 0.1 mm 3 mps 707 mmHg 80%
    20:00 +29°C° 0.1 mm 3 mps 708 mmHg 81%
    21:00 +28°C° 0.4 mm 3 mps 708 mmHg 80%
    22:00 +28°C° 0.4 mm 3 mps 708 mmHg 80%
    23:00 +28°C° 0.4 mm 3 mps 708 mmHg 80%

    27 June, Wednesday

    Time Temperature Precipitation Wind Pressure Humidity
    00:00 +28°C° 0.1 mm 3 mps 708 mmHg 80%
    01:00 +28°C° 0.1 mm 4 mps 707 mmHg 79%
    02:00 +28°C° 0.1 mm 4 mps 707 mmHg 79%
    03:00 +28°C° 0 mm 4 mps 707 mmHg 79%
    04:00 +28°C° 0 mm 4 mps 707 mmHg 80%
    05:00 +28°C° 0 mm 3 mps 708 mmHg 80%
    06:00 +28°C° 0 mm 4 mps 708 mmHg 77%
    07:00 +29°C° 0 mm 4 mps 709 mmHg 74%
    08:00 +30°C° 0 mm 4 mps 709 mmHg 72%
    09:00 +32°C° 0 mm 4 mps 709 mmHg 67%
    10:00 +33°C° 0 mm 4 mps 709 mmHg 62%
    11:00 +34°C° 0 mm 4 mps 710 mmHg 58%
    12:00 +35°C° 0 mm 4 mps 709 mmHg 55%
    13:00 +36°C° 0 mm 4 mps 709 mmHg 52%
    14:00 +36°C° 0 mm 4 mps 708 mmHg 49%
    15:00 +36°C° 0.1 mm 3 mps 708 mmHg 51%
    16:00 +35°C° 0.1 mm 3 mps 708 mmHg 53%
    17:00 +35°C° 0.1 mm 2 mps 708 mmHg 55%
    18:00 +34°C° 0.9 mm 2 mps 708 mmHg 59%
    19:00 +34°C° 0.9 mm 2 mps 708 mmHg 62%
    20:00 +32°C° 0.9 mm 1 mps 709 mmHg 66%
    21:00 +32°C° 0.6 mm 1 mps 709 mmHg 68%
    22:00 +31°C° 0.6 mm 2 mps 708 mmHg 69%
    23:00 +31°C° 0.6 mm 2 mps 708 mmHg 71%
    Show more